Retour au catalogue

FENGYUN 1C DEB

ActifSSO
NORAD 29949·DEBRIS·🇨🇳 China

Lancé May 10, 1999 depuis Taiyuan Satellite Launch Center

Loading…

Prochains Passages (prochaines 24 heures)

TLE

FraisSource: Space-Track

Époque: Sep 13, 2026, 16:13 UTC

1 29949U 99025JX  26256.67638594 -.00000113  00000-0 -41920-4 0  9994
2 29949  98.7528 268.6478 0023026 249.2121 228.3818 14.06869316  9734

Suivez FENGYUN 1C DEB en temps réel avec AllMySat

Download on the App Store